Tracking 19242 objects as of 15-Aug-2018
HD Live streaming from Space Station
objects crossing your sky now

GEOTAIL

Track GEOTAIL now!
GEOTAIL is classified as:


NORAD ID: 22049
Int'l Code: 1992-044A
Perigee: 51,224.6 km
Apogee: 190,610.2 km
Inclination: 10.6 °
Period: 7,532.6 minutes
Semi major axis: 127288 km
RCS: 3.5 m2 (large)
Launch date: July 24, 1992
Source: Japan (JPN)
Launch site: AIR FORCE EASTERN TEST RANGE (AFETR)

Study the dynamics of the Earth's magnetotail over a wide range of distance
aabbcc
Your satellite tracking list
Your tracking list is empty




NASA's NSSDC Master Catalog

Two Line Element Set (TLE):
1 22049U 92044A   18220.78553527 -.00000834  00000-0  00000+0 0  9996
2 22049  10.6311  77.7322 5475188 125.1717 358.2081  0.19116995 10246
Source of the keplerian elements: AFSPC